Flag for U.S.A. Weather past 2 weeks in Alexandria, Virginia, U.S.A.

Now
34 °F

Broken clouds.


Feels Like: 23 °F
Forecast: 24 / 34 °F
Wind: 17 mph from North

Location: Reagan National Airport

Current Time: Feb 27, 2015 at 12:33:38 PM

Latest Report: Feb 27, 2015 at 11:52 AM


Visibility: 10 mi

Pressure: 30.44 "Hg

Humidity: 40%

Dew point: 12 °F

Location of AlexandriaLocation

Historic Weather in Alexandria — Graph

°F

Alexandria temperature yesterday

Maximum temperature yesterday: 39 °F (at 3:52 PM)
Minimum temperature yesterday: 30 °F (at 6:04 AM)
Average temperature yesterday: 34 °F

Past Weeks' High & Low Weather Summary

 TemperatureHumidityPressure
High49 °F (Feb 22, 3:52 PM)88% (Feb 22, 3:52 AM)30.51 "Hg (Feb 22, 3:52 AM)
Low6 °F (Feb 20, 5:52 AM)23% (Feb 20, 4:52 PM)29.46 "Hg (Feb 14, 5:52 PM)
Average25 °F50%30.12 "Hg
* Reported Feb 12 10:52 AM — Feb 27 10:52 AM, Alexandria, Weather by CustomWeather, © 2015

Note: Actual official high and low records may vary slightly from our data, if they occured in-between our weather recording intervals... More about our weather records

Advertising

Alexandria weather history for previous 24 hours

 ConditionsComfort  
Time TempWeatherWind HumidityBarometerVisibility
10:52 AM
Fri, Feb 27
34 °FPartly sunny.10 mph40%30.43 "Hg10 mi
9:52 AM32 °FPartly sunny.15 mph40%30.42 "Hg10 mi
8:52 AM32 °FPartly sunny.12 mph45%30.40 "Hg10 mi
7:52 AM32 °FMostly cloudy.17 mph54%30.37 "Hg9 mi
6:52 AM33 °FOvercast.13 mph63%30.31 "Hg10 mi
5:52 AM34 °FLight snow. Mostly cloudy.6 mph64%30.28 "Hg9 mi
4:52 AM32 °FOvercast.No wind73%30.25 "Hg10 mi
3:52 AM32 °FMostly cloudy.5 mph73%30.21 "Hg10 mi
2:52 AM32 °FMostly cloudy.3 mph69%30.20 "Hg10 mi
1:52 AM33 °FOvercast.No wind70%30.20 "Hg10 mi
12:52 AM33 °FOvercast.No wind63%30.18 "Hg10 mi
11:52 PM
Thu, Feb 26
33 °FOvercast.3 mph66%30.16 "Hg10 mi
10:52 PM33 °FOvercast.5 mph63%30.14 "Hg10 mi
9:52 PM33 °FOvercast.No wind63%30.13 "Hg10 mi
8:52 PM34 °FOvercast.7 mph67%30.11 "Hg10 mi
7:52 PM35 °FOvercast.No wind56%30.10 "Hg10 mi
6:52 PM36 °FPassing clouds.3 mph57%30.06 "Hg10 mi
5:52 PM37 °FOvercast.6 mph54%30.02 "Hg10 mi
4:52 PM38 °FOvercast.6 mph55%30.00 "Hg10 mi
3:52 PM39 °FBroken clouds.7 mph53%29.97 "Hg10 mi
2:52 PM38 °FBroken clouds.8 mph55%29.95 "Hg10 mi
1:52 PM37 °FMore clouds than sun.13 mph62%29.93 "Hg10 mi
12:52 PM35 °FMore clouds than sun.8 mph64%29.90 "Hg10 mi
Weather by CustomWeather, © 2015

See weather overviewHow to use our weather pages